Regional Weather Roundup
Issued by NWS

Home | Current Version | Previous Version | Graphics & Text | Print | Product List | Glossary Off
Versions: 1 2 3 4 5 6 7 8 9 10 11 12 13 14 15 16 17 18 19 20 21 22 23 24 25 26 27 28 29 30 31 32 33 34 35 36 37 38 39 40 41 42 43 44 45 46 47 48 49 50

000
ASUS43 KMKX 190559
RWRWI

WISCONSIN REGIONAL WEATHER ROUNDUP
NATIONAL WEATHER SERVICE MILWAUKEE/SULLIVAN WI
1200 AM CST MON FEB 19 2018

NOTE: "FAIR" INDICATES FEW OR NO CLOUDS BELOW 12,000 FEET WITH NO
SIGNIFICANT WEATHER AND/OR OBSTRUCTIONS TO VISIBILITY.

WIZ001-002-006>008-014>016-023>028-190700-
NORTHWEST WISCONSIN

CITY           SKY/WX    TMP DP  RH WIND       PRES   REMARKS
SUPERIOR ARPT  CLOUDY    20  14  77 N7        29.91R WCI  11
6HR MIN TEMP:  20; 6HR MAX TEMP:  27; 6HR PCP:  0.07;

ASHLAND        CLOUDY    21  19  92 N17       29.87R WCI   7
6HR MIN TEMP:  21; 6HR MAX TEMP:  24; 6HR PCP: TRACE;

HAYWARD        CLOUDY    26  22  84 N10       29.80R WCI  16
6HR MIN TEMP:  26; 6HR MAX TEMP:  38;

SIREN          CLOUDY    26  21  82 N9        29.82R WCI  17
CUMBERLAND     CLOUDY    30  25  80 N12       29.74R WCI  21
RICE LAKE      FAIR      28  24  86 N3        29.75R
CHETEK         CLOUDY    32  27  80 CALM      29.73R
LADYSMITH      CLOUDY    34  26  73 E5        29.75R WCI  30
EAU CLAIRE     NOT AVBL
MENOMONIE      FAIR      33  28  80 CALM      29.73R
6HR MIN TEMP:  33; 6HR MAX TEMP:  40;

NEW RICHMOND   FAIR      27  23  85 NW9       29.74R WCI  18
OSCEOLA        FAIR      28  23  83 N10       29.79R WCI  18
$$

WIZ003>005-009-010-017-018-190700-
NORTH CENTRAL WISCONSIN

CITY           SKY/WX    TMP DP  RH WIND       PRES   REMARKS
MANITOWISH WTR CLOUDY    31  24  76 S5        29.74R WCI  26
ARBOR VITAE    CLOUDY    34  27  76 S7        29.74R WCI  28
WOODRUFF       CLOUDY    34  27  76 S7        29.74R WCI  28
RHINELANDER    CLOUDY    32  26  78 S7        29.76S WCI  26
6HR MIN TEMP:  32; 6HR MAX TEMP:  34;

EAGLE RIVER    CLOUDY    32  23  69 S3        29.75S
LAND O LAKES   CLOUDY    33  24  71 S3        29.76S
PHILLIPS       CLOUDY    32  26  76 S5        29.73S WCI  28
TOMAHAWK       CLOUDY    31  25  76 CALM      29.77R
MEDFORD        CLOUDY    32  26  78 SE7       29.74S WCI  25
MERRILL        CLOUDY    32  26  78 SE3       29.77F
$$

WIZ029-030-035-036-043>047-190700-
CENTRAL WISCONSIN

CITY           SKY/WX    TMP DP  RH WIND       PRES   REMARKS
WAUSAU         CLOUDY    29  25  85 SE8       29.75F WCI  21
6HR MIN TEMP:  29; 6HR MAX TEMP:  32;

MOSINEE        CLOUDY    30  27  86 SE5       29.77  WCI  25
MARSHFIELD     MOCLDY    30  25  81 S6        29.74S WCI  24
6HR MIN TEMP:  28; 6HR MAX TEMP:  33;

STEVENS POINT  FAIR      29  27  92 CALM      29.78F
WAUPACA        CLOUDY    38  30  75 SE8       29.81F WCI  32
WAUTOMA        CLOUDY    35  30  82 S6        29.81S WCI  30
6HR MIN TEMP:  34; 6HR MAX TEMP:  36;

WISC RAPIDS    FAIR      32  26  78 S5        29.78S WCI  27
6HR MIN TEMP:  31; 6HR MAX TEMP:  36;

CAMP DOUGLAS   FAIR      36  29  75 S9        29.75S WCI  29
6HR MIN TEMP:  36; 6HR MAX TEMP:  38;

$$

WIZ011>013-019>022-031-037>040-048>050-190700-
NORTHEAST WISCONSIN

CITY           SKY/WX    TMP DP  RH WIND       PRES   REMARKS
ANTIGO         CLOUDY    28  25  87 S7        29.78S WCI  21
SHAWANO        CLOUDY    35  27  71 S3        29.82F
OCONTO         CLOUDY    33  27  81 CALM      29.84F
STURGEON BAY   CLOUDY    35  31  85 S14       29.85F WCI  26
6HR MIN TEMP:  33; 6HR MAX TEMP:  35;

GREEN BAY      CLOUDY    34  27  75 S9        29.83F WCI  27
6HR MIN TEMP:  33; 6HR MAX TEMP:  35;

MANITOWOC      CLOUDY    34  31  88 S10       29.86F WCI  26
6HR MIN TEMP:  33; 6HR MAX TEMP:  36;

APPLETON       CLOUDY    32  25  74 S8        29.80F WCI  25
CLINTONVILLE   CLOUDY    34  27  75 S6        29.81F WCI  28
OSHKOSH        MOCLDY    31  27  85 S5        29.82F WCI  26
6HR MIN TEMP:  29; 6HR MAX TEMP:  36;

$$

WIZ032>034-041-042-053>061-190700-
SOUTHWEST WISCONSIN

CITY           SKY/WX    TMP DP  RH WIND       PRES   REMARKS
LA CROSSE      CLOUDY    40  30  67 S15       29.73S WCI  32
6HR MIN TEMP:  37; 6HR MAX TEMP:  40;

SPARTA         MOCLDY    37  30  74 SW7       29.76S WCI  32
VIROQUA        MOCLDY    36  31  82 S12       29.75R WCI  28
BOSCOBEL       FAIR      38  29  70 SW3       29.78F
6HR MIN TEMP:  37; 6HR MAX TEMP:  41;

PRAIRIE DU CHI MOCLDY    40  28  62 E7        29.76F
PLATTEVILLE    CLOUDY    37  32  81 S9        29.78F WCI  31
$$

WIZ056-057-062-063-064-067-068-190700-
SOUTH CENTRAL WISCONSIN

CITY           SKY/WX    TMP DP  RH WIND       PRES   REMARKS
REEDSBURG      FAIR      37  30  77 S5        29.78S WCI  33
BARABOO/DELLS  FAIR      37  30  77 S12       29.78F WCI  29
LONE ROCK      NOT AVBL
MINERAL POINT  CLOUDY    36  34  93 SE8       29.78F WCI  29
MADISON        MOCLDY    36  31  82 MISG      29.82F
6HR MIN TEMP:  34; 6HR MAX TEMP:  38;

MIDDLETON      MOCLDY    37  32  81 S7        29.81F WCI  32
WATERTOWN      FAIR      36  32  85 S8        29.84S WCI  30
MONROE         CLOUDY    36  32  87 S16       29.80F WCI  26
JANESVILLE     MOCLDY    39  32  75 S9G17     29.83F WCI  33
$$

WIZ051-052-058>065-066-070>072-190700-
SOUTHEAST WISCONSIN

CITY           SKY/WX    TMP DP  RH WIND       PRES   REMARKS
MILWAUKEE      MOCLDY    33  29  85 SE5       29.86F WCI  29
6HR MIN TEMP:  33; 6HR MAX TEMP:  37;

WAUKESHA       MOCLDY    34  28  80 SE3       29.86F
MILWAUKEE/TIMM MOCLDY    32  28  86 SE3       29.87F
RACINE         FAIR      34  31  88 S6        29.89F WCI  29
6HR MIN TEMP:  33; 6HR MAX TEMP:  36;

BURLINGTON     MOCLDY    38  30  71 S10       29.85F WCI  32
KENOSHA        MOCLDY    38  29  70 S9        29.86F WCI  31
6HR MIN TEMP:  34; 6HR MAX TEMP:  39;

FOND DU LAC    FAIR      35  27  72 S12       29.82F WCI  27
6HR MIN TEMP:  34; 6HR MAX TEMP:  35;

SHEBOYGAN      FAIR      32  30  92 S9        29.85F WCI  24
6HR MIN TEMP:  32; 6HR MAX TEMP:  34;

WEST BEND      MOCLDY    32  30  93 CALM      29.85F
JUNEAU         FAIR      35  30  81 S12       29.85S WCI  27
$$

LSZ147-162-190700-
LAKE SUPERIOR

STATION/POSITION TIME  TEMP    WIND        PRES    WAVE
                       AIR SEA DIR/SP/G            HT/PER
                 (UTC) (F)     (DEG/KT/KT) (MB)    (FT/S)
DEVILS ISLAND    0500   21      30/ 21/ 24 1011.7S
SAXON HARBOR     0540   26      40/ 17/ 21 1010.8R
$$

LMZ867-665-643>646-190700-
LAKE MICHIGAN

STATION/POSITION TIME  TEMP    WIND        PRES    WAVE
                       AIR SEA DIR/SP/G            HT/PER
                 (UTC) (F)     (DEG/KT/KT) (MB)    (FT/S)
NORTHPORT PIER   0540   36                 1011.2F
KEWAUNEE LAKESHO 0530   35     180/ 18/ 19 1010.9F
SHEBOYGAN LAKESH 0500   36     190/ 21/ 23 1012.2F
PORT WASHINGTON  0540   33     190/  3/  4 1012.9F
MILWAUKEE LAKESH 0530   35     160/  6/  7   N/A
KENOSHA   LAKESH 0500   35     160/  7/  9 1012.2
$$

TC  - TEMPERATURE IN CELSIUS
VSB - VISIBILITY IN STATUTE MILES
WCI - WIND CHILL INDEX
HX  - HEAT INDEX





USA.gov is the U.S. government's official web portal to all federal, state and local government web resources and services.